DW5683 Weather Reports


Display with metric or nautical units.
time (UTC)temp
F
wind
direction
speed
MPH
gust
MPH
rain 1hr
in
rain 24hr
in
rain mn
in
humidity
%
barometer
mb
20260504020041 66 213 1.0 7.0 0.00 0.00 0.00 60 1010.8
20260504014538 67 209 3.0 9.0 0.00 0.00 0.00 59 1010.8
20260504013049 67 200 2.0 8.0 0.00 0.00 0.00 59 1010.6
20260504011535 67 190 2.0 6.0 0.00 0.00 0.00 60 1010.6
20260504010037 67 0 2.0 9.0 0.00 0.00 0.00 61 1010.7
20260504004538 66 194 1.0 4.0 0.00 0.00 0.00 62 1010.7
20260504003037 66 0 0.0 6.0 0.00 0.00 0.00 61 1010.7
20260504001538 67 195 1.0 4.0 0.00 0.00 0.00 61 1010.7
20260504000035 66 0 0.0 2.0 0.00 0.00 0.00 62 1010.7
20260503234543 66 0 0.0 5.0 0.00 0.00 0.00 62 1010.9
20260503233037 66 195 1.0 4.0 0.00 0.00 0.00 63 1011.2
20260503231537 66 0 0.0 5.0 0.00 0.00 0.00 62 1011.3
20260503230041 66 0 0.0 7.0 0.00 0.00 0.00 62 1011.2
20260503224535 66 191 1.0 7.0 0.00 0.00 0.00 62 1011.2
20260503223035 66 0 1.0 5.0 0.00 0.00 0.00 63 1011.3
20260503221542 66 155 0.0 7.0 0.00 0.00 0.00 63 1011.2
20260503220043 65 144 0.0 7.0 0.00 0.00 0.00 63 1011.1
20260503214542 65 186 0.0 4.0 0.00 0.00 0.00 64 1011.3
20260503213043 65 188 0.0 8.0 0.00 0.00 0.00 62 1011.3
20260503211537 65 229 0.0 6.0 0.00 0.00 0.00 62 1011.3
20260503210035 65 169 2.0 7.0 0.00 0.00 0.00 62 1011.5
20260503204534 65 0 2.0 7.0 0.00 0.00 0.00 61 1011.5
20260503203041 65 0 1.0 6.0 0.00 0.00 0.00 62 1011.4
20260503201539 66 191 3.0 9.0 0.00 0.00 0.00 60 1011.5
20260503200038 68 188 3.0 9.0 0.00 0.00 0.00 59 1011.6
20260503194543 69 204 1.0 14.0 0.00 0.00 0.00 60 1011.6
20260503193044 67 130 1.0 6.0 0.00 0.00 0.00 62 1011.5
20260503191601 65 196 3.0 10.0 0.00 0.00 0.00 66 1011.6
20260503190037 64 189 1.0 9.0 0.00 0.00 0.00 70 1011.8
20260503184538 61 134 1.0 8.0 0.00 0.00 0.00 73 1012.0
20260503183038 59 123 1.0 10.0 0.00 0.00 0.00 77 1012.0
20260503181547 59 0 0.0 7.0 0.00 0.00 0.00 76 1011.8
20260503180040 59 0 1.0 12.0 0.00 0.00 0.00 74 1011.9
20260503174544 60 0 1.0 11.0 0.00 0.00 0.00 74 1011.8
20260503173041 58 143 1.0 8.0 0.00 0.00 0.00 79 1011.6
20260503171539 57 124 1.0 7.0 0.00 0.00 0.00 79 1011.5
20260503081540 55 0 0.0 0.0 0.00 0.00 0.00 82 1009.7
20260503071540 56 0 0.0 0.0 0.00 0.00 0.00 80 1010.2
20260503054557 59 0 0.0 1.0 0.00 0.00 0.00 76 1010.4
20260503053037 60 0 0.0 2.0 0.00 0.00 0.00 74 1010.3
20260503051535 60 0 0.0 0.0 0.00 0.00 0.00 72 1010.3
20260503050036 61 0 0.0 0.0 0.00 0.00 0.00 71 1010.3
20260503044542 61 0 0.0 1.0 0.00 0.00 0.00 70 1010.2
20260503043050 62 0 0.0 2.0 0.00 0.00 0.00 70 1010.1
20260503041538 63 0 0.0 0.0 0.00 0.00 0.00 71 1010.0
20260503040039 63 0 0.0 0.0 0.00 0.00 0.00 70 1009.9
20260503034541 64 0 0.0 1.0 0.00 0.00 0.00 69 1009.6
20260503033034 65 0 0.0 2.0 0.00 0.00 0.00 68 1009.5
20260503031534 65 0 0.0 6.0 0.00 0.00 0.00 67 1009.3
20260503030037 66 171 1.0 6.0 0.00 0.00 0.00 65 1009.2
20260503024538 67 0 2.0 5.0 0.00 0.00 0.00 63 1009.2
20260503023037 69 170 1.0 6.0 0.00 0.00 0.00 62 1009.0
20260503021535 70 0 1.0 6.0 0.00 0.00 0.00 61 1008.9